EDT,Max TemperatureF,Mean TemperatureF,Min TemperatureF,Max Dew PointF,MeanDew PointF,Min DewpointF,Max Humidity, Mean Humidity, Min Humidity, Max Sea Level PressureIn, Mean Sea Level PressureIn, Min Sea Level PressureIn, Max VisibilityMiles, Mean VisibilityMiles, Min VisibilityMiles, Max Wind SpeedMPH, Mean Wind SpeedMPH, Max Gust SpeedMPH,PrecipitationIn, CloudCover, Events, WindDirDegrees
2013-3-1,44,38,32,31,27,23,88,65,47,29.80,29.71,29.62,10,10,8,15,5,21,0.00,6,,316
2013-3-2,39,34,30,24,21,19,72,60,50,29.80,29.76,29.72,10,10,10,13,8,17,0.00,7,,320
2013-3-3,37,32,28,20,17,14,64,54,44,29.79,29.75,29.70,10,10,10,14,9,23,0.00,6,,320
2013-3-4,42,35,28,20,18,14,61,51,37,29.94,29.84,29.80,10,10,10,20,12,29,0.00,4,,315
2013-3-5,51,40,30,27,23,19,70,53,35,30.03,29.98,29.94,10,10,10,14,6,20,0.00,3,,360
2013-3-6,43,39,35,34,30,26,87,70,55,29.95,29.88,29.82,10,10,4,25,10,39,0.02,8,Rain-Snow,57
2013-3-7,43,38,33,34,28,23,89,70,53,30.09,30.03,29.93,10,9,2,15,11,25,0.05,8,Rain-Snow,352
2013-3-8,45,38,30,33,29,24,93,80,53,30.21,30.06,30.02,10,4,0,13,8,23,0.14,7,Fog-Rain-Snow,335
2013-3-9,60,44,28,26,20,9,76,45,13,30.30,30.24,30.19,10,10,10,13,6,17,0.00,0,,342
2013-3-10,54,39,24,35,30,21,93,74,47,30.38,30.32,30.27,10,10,10,8,2,,0.00,1,,127
2013-3-11,59,46,35,47,40,32,100,85,49,30.30,30.18,30.07,10,7,0,8,2,,0.00,6,Fog,147
2013-3-12,57,52,44,56,49,36,100,87,66,30.05,29.79,29.66,10,7,2,13,6,28,0.68,7,Rain,176
2013-3-13,51,42,33,37,29,21,96,62,36,29.90,29.86,29.81,10,10,7,12,5,21,0.01,4,Rain,291
2013-3-14,42,36,30,17,11,5,52,38,24,29.98,29.92,29.86,10,10,10,22,11,38,0.00,3,,299
2013-3-15,48,38,28,30,19,10,56,46,38,30.00,29.87,29.72,10,10,10,9,5,23,0.00,4,,287
2013-3-16,43,36,28,32,28,20,93,79,50,29.92,29.81,29.77,10,6,1,7,3,,0.05,7,Snow,3
2013-3-17,37,32,27,29,20,15,96,64,39,30.30,30.12,29.92,10,10,10,13,4,17,0.00,2,,334
2013-3-18,37,28,21,32,24,9,96,78,45,30.39,30.21,29.98,10,6,1,10,4,21,0.00,6,Rain-Snow,85
2013-3-19,48,42,35,36,32,14,100,81,35,29.93,29.77,29.69,10,7,2,18,5,31,0.71,7,Rain,324
2013-3-20,46,39,32,22,17,12,59,43,25,29.90,29.84,29.78,10,10,10,16,7,26,0.00,2,,279
2013-3-21,39,34,28,30,19,10,93,59,30,29.83,29.75,29.64,10,8,2,12,6,17,0.00,7,Snow,335
2013-3-22,42,34,26,21,17,13,64,51,36,29.90,29.81,29.75,10,10,10,14,4,24,0.00,3,,291
2013-3-23,46,38,30,20,18,16,64,45,32,29.95,29.89,29.85,10,10,10,20,8,30,0.00,3,,305
2013-3-24,48,36,24,25,20,17,81,48,30,29.96,29.83,29.70,10,10,10,12,4,17,0.00,0,,358
2013-3-25,39,36,33,36,31,25,97,82,57,29.69,29.55,29.48,10,7,0,15,4,22,0.18,8,Fog-Rain-Snow,37
2013-3-26,53,41,32,34,29,23,96,64,35,29.88,29.74,29.63,10,10,5,10,3,20,0.01,6,Rain,309
2013-3-27,52,39,26,31,26,21,96,63,31,30.00,29.92,29.88,10,10,10,18,4,24,0.00,2,Rain,302
2013-3-28,50,37,26,29,27,24,92,59,39,30.12,30.03,29.98,10,10,10,14,5,24,0.00,4,,324
2013-3-29,55,42,28,29,26,23,88,58,30,30.16,30.12,30.07,10,10,10,14,3,23,0.00,3,,321
2013-3-30,60,43,26,31,23,16,92,54,19,30.18,30.12,30.06,10,10,10,8,1,18,0.00,1,,312
2013-3-31,57,42,26,45,37,23,100,81,33,30.12,29.87,29.69,10,6,2,14,3,34,0.11,5,Rain,134